Location: *
(53.9002°N, 27.5624°E)
Time: 11:34:16
(UTC+00:00)

YAOGAN 6 - Pass Details

Date: 12 November 2019
Orbit: 467 x 504 km, 97.0° (Epoch: 15 December)

Event Time Altitude Azimuth Distance (km) Brightness Sun altitude
Rises 14:52:52 0° 121° (ESE) 2,514 5.8 -5.6°
Reaches altitude 10° 14:55:30 10° 99° (E) 1,637 4.7 -6.0°
Maximum altitude 14:57:41 16° 60° (ENE) 1,316 4.1 -6.3°
Drops below altitude 10° 14:59:52 10° 21° (NNE) 1,640 4.9 -6.6°
Sets 15:02:31 0° 360° (N) 2,522 6.0 -7.0°
